Location: Krakow
(50.0212°N, 19.9423°E)
Time: 23:45:40
(UTC+02:00)

NOAA 18 - Pass Details

Date: 13 August 2024
Orbit: 837 x 859 km, 98.9° (Epoch: 19 September)

Event Time Altitude Azimuth Distance (km) Brightness Sun altitude
Exits shadow 20:36:26 - 97° (E) 3,014 7.5 -5.8°
Reaches altitude 10° 20:38:32 10° 81° (E) 2,497 7.2 -6.1°
Maximum altitude 20:41:22 14° 50° (NE) 2,198 7.2 -6.5°
Drops below altitude 10° 20:44:14 10° 19° (NNE) 2,507 7.9 -6.9°
Sets 20:47:43 0° 356° (N) 3,448 9.0 -7.3°
